Regional Weather Roundup
Issued by NWS

Home | Current Version | Previous Version | Graphics & Text | Print | Product List | Glossary On
Versions: 1 2 3 4 5 6 7 8 9 10 11 12 13 14 15 16 17 18 19 20 21 22 23 24 25 26 27 28 29 30 31 32 33 34 35 36 37 38 39 40 41 42 43 44 45 46 47 48 49 50
000
ASUS45 KBOU 291107
RWRCO

WEATHER ROUNDUP FOR COLORADO
NATIONAL WEATHER SERVICE DENVER/BOULDER CO
500 AM MDT SAT AUG 29 2015

NOTE: "FAIR" INDICATES FEW OR NO CLOUDS BELOW 12000 FEET WITH NO
SIGNIFICANT WEATHER AND/OR OBSTRUCTIONS TO VISIBILITY.

COZ001>005-013-030-031-291200-
...NORTHWEST COLORADO...

CITY           SKY/WX    TMP DP  RH WIND       PRES   REMARKS
CRAIG          CLEAR     45  41  86 CALM      30.31S
HAYDEN         NOT AVBL
MEEKER         CLEAR     47  40  76 E5        30.32S
MOUNT WERNER   NOT AVBL
STEAMBOAT SPGS CLEAR     46  42  87 CALM      30.36S
WALDEN         CLEAR     36  34  93 E5        30.44S
$$

COZ006>008-011-291200-
...WEST CENTRAL VALLEYS...

CITY           SKY/WX    TMP DP  RH WIND       PRES   REMARKS
GRAND JUNCTION CLEAR     59  45  59 SE10      30.19S
MONTROSE       PTCLDY    56  45  66 S8        30.28S
EAGLE          CLEAR     46  41  81 E3        30.41S
RIFLE          CLEAR     54  45  71 CALM      30.28R
DELTA          CLEAR     58  51  78 CALM      30.23S
NUCLA          CLEAR     57  41  54 MISG      30.29S
$$

COZ017>023-064>068-291200-
...SOUTHWEST COLORADO...

CITY           SKY/WX    TMP DP  RH WIND       PRES   REMARKS
DURANGO        CLEAR     53  44  71 N3        30.35R
CORTEZ         CLEAR     51  44  77 VRB3      30.26R
PAGOSA SPRINGS PTCLDY    54  43  67 CALM      30.43S
TELLURIDE      CLEAR     56  38  49 CALM      30.51S
WOLF CREEK PAS PTCLDY    43  36  75 SW9       30.73F
$$

COZ009-010-012-014-032>034-037-058>063-291200-
...CENTRAL COLORADO...

CITY           SKY/WX    TMP DP  RH WIND       PRES   REMARKS
ASPEN          CLEAR     45  40  82 CALM      30.42S
BUENA VISTA    PTCLDY    49  39  67 NW7       30.48S
COPPER MTN     CLEAR     46  34  61 S23       30.71S
BERTHOUD PASS  FAIR      37  28  70 W9        30.75S
COTTONWOOD PAS PTCLDY    55  37  50 W6        30.58F
GUNNISON       CLEAR     46  37  71 SE5       30.47F
KREMMLING      CLEAR     41  37  87 CALM      30.46S
LEADVILLE      CLEAR     40  37  89 CALM      30.58S
MONARCH PASS   PTCLDY    43  36  75 E5        30.81F
SALIDA         PTCLDY    51  43  73 W5        30.53S
SUNLIGHT       CLEAR     50  37  62 CALM      30.64S
WILKERSON PASS CLEAR     45  36  70 SW8       30.69F
$$

COZ069>075-291200-
...SAN LUIS VALLEY/SANGRE DE CRISTO MOUNTAINS...

CITY           SKY/WX    TMP DP  RH WIND       PRES   REMARKS
ALAMOSA        CLEAR     51  42  71 N5        30.42S
LA VETA PASS   CLEAR     46  37  71 NE3       30.60S
SAGUACHE       CLEAR     50  41  71 NW13      30.45F
$$

COZ035-036-038>040-291200-
...NORTHERN COLORADO FRONT RANGE...

CITY           SKY/WX    TMP DP  RH WIND       PRES   REMARKS
DENVER INTL AP PTCLDY    59  40  49 S9        30.26F
DMNS CITY PARK   N/A     60  46  59 SE6       30.26S
AURORA         CLEAR     57  41  55 S8        30.28F
FRONT RANGE AP NOT AVBL
ERIE MUNI ARPT CLEAR     52  47  83 CALM      30.25S
BOULDER MUN AP CLEAR     59  43  55 CALM      30.25S
CENTENNIAL     PTCLDY    57  42  57 S8        30.29F
BROOMFIELD     CLEAR     61  43  51 CALM      30.28S
FORT COLLINS   CLEAR     55  45  67 N3        30.25F
LONGMONT       CLEAR     57  47  70 CALM      30.26S
$$

COZ041-046-047-076>085-087-088-291200-
...PIKES PEAK/PALMER DIVIDE AND SOUTHERN FOOTHILLS...

CITY           SKY/WX    TMP DP  RH WIND       PRES   REMARKS
COLO. SPRINGS  PTCLDY    57  40  52 N5        30.35S
A. F. ACADEMY  CLEAR     49  43  78 N10       30.36F
ELLICOTT       CLEAR    N/A N/A N/A CALM      30.33F
FALCON         CLEAR     54  42  62 MISG      30.39F
FORT CARSON    CLEAR     56  45  66 NW12      30.31F
LIMON          CLEAR     46  43  89 N5        30.29S
MONUMENT HILL  CLEAR     50  39  66 S8        30.39S
TRINIDAD       CLEAR     57  47  69 W10       30.30F
$$

COZ042>045-048>051-090-091-291200-
...NORTHEAST COLORADO...

CITY           SKY/WX    TMP DP  RH WIND       PRES   REMARKS
GREELEY ARPT   CLEAR     52  45  76 CALM      30.24S
AKRON          CLEAR     59  44  57 SW10      30.22S
BURLINGTON     CLEAR     54  50  86 W7        30.21S
WRAY           CLEAR     53  50  90 SW5       30.17S
STERLING       CLEAR     50  45  81 SW6       30.19R
HOLYOKE        CLEAR     55  52  88 W6        30.18S
FORT MORGAN    CLEAR     51  47  84 W8        30.23R
$$

COZ086-089-092>099-291200-
...SOUTHEAST COLORADO...

CITY           SKY/WX    TMP DP  RH WIND       PRES   REMARKS
PUEBLO         CLEAR     60  49  66 CALM      30.25S
LA JUNTA       CLEAR     59  49  69 N3        30.21S
LAMAR          CLEAR     55  52  89 CALM      30.16F FOG
SPRINGFIELD    NOT AVBL
$$




USA.gov is the U.S. government's official web portal to all federal, state and local government web resources and services.